• In India
  • List of Countries
  • For 7 days
  • Water Temperature
  • Satellite Maps
  • Weather Map
  • Weather Widgets
  • user-avatar
    Login

    Hourly Weather Świdwin

    Today, 13 December, Wednesday

    Time Temperature Precipitation Wind Pressure Humidity
    00:00 -2°C° 0 mm 6 mps 747 mmHg 85%
    01:00 -2°C° 0 mm 5 mps 748 mmHg 87%
    02:00 -2°C° 0 mm 5 mps 748 mmHg 89%
    03:00 -2°C° 0 mm 5 mps 748 mmHg 91%
    04:00 -2°C° 0 mm 5 mps 749 mmHg 93%
    05:00 -2°C° 0 mm 5 mps 749 mmHg 91%
    06:00 -2°C° 0 mm 5 mps 749 mmHg 90%
    07:00 -2°C° 0 mm 5 mps 749 mmHg 89%
    08:00 -3°C° 0 mm 6 mps 749 mmHg 88%
    09:00 -3°C° 0 mm 6 mps 749 mmHg 86%
    10:00 -3°C° 0 mm 6 mps 749 mmHg 85%
    11:00 -2°C° 0 mm 6 mps 748 mmHg 83%
    12:00 -2°C° 0 mm 7 mps 747 mmHg 80%
    13:00 -2°C° 0 mm 7 mps 747 mmHg 78%
    14:00 -2°C° 0 mm 7 mps 746 mmHg 78%
    15:00 -2°C° 0 mm 7 mps 745 mmHg 78%
    16:00 -2°C° 0 mm 7 mps 744 mmHg 78%
    17:00 -2°C° 0 mm 7 mps 743 mmHg 77%
    18:00 -2°C° 0 mm 8 mps 742 mmHg 76%
    19:00 -2°C° 0 mm 8 mps 741 mmHg 75%
    20:00 -2°C° 0.2 mm 8 mps 740 mmHg 76%
    21:00 -2°C° 0.2 mm 8 mps 739 mmHg 77%
    22:00 -3°C° 0.2 mm 9 mps 738 mmHg 78%
    23:00 -2°C° 0.3 mm 8 mps 737 mmHg 80%

    Tomorrow, 14 December, Thursday

    Time Temperature Precipitation Wind Pressure Humidity
    00:00 -1°C° 0.3 mm 8 mps 736 mmHg 82%
    01:00 -1°C° 0.3 mm 8 mps 736 mmHg 84%
    02:00 -1°C° 0.1 mm 8 mps 734 mmHg 83%
    03:00 -1°C° 0.1 mm 8 mps 733 mmHg 82%
    04:00 -1°C° 0.1 mm 8 mps 731 mmHg 81%
    05:00 -1°C° 0.7 mm 8 mps 731 mmHg 83%
    06:00 0°C° 0.7 mm 8 mps 730 mmHg 84%
    07:00 0°C° 0.7 mm 8 mps 730 mmHg 86%
    08:00 0°C° 0.1 mm 8 mps 730 mmHg 86%
    09:00 0°C° 0.1 mm 7 mps 730 mmHg 85%
    10:00 0°C° 0.1 mm 7 mps 730 mmHg 85%
    11:00 +1°C° 0 mm 6 mps 730 mmHg 84%
    12:00 +1°C° 0 mm 6 mps 731 mmHg 84%
    13:00 +1°C° 0 mm 5 mps 731 mmHg 84%
    14:00 +1°C° 0.2 mm 5 mps 732 mmHg 84%
    15:00 +1°C° 0.2 mm 6 mps 732 mmHg 85%
    16:00 -1°C° 0.2 mm 6 mps 733 mmHg 86%
    17:00 -1°C° 0.1 mm 6 mps 733 mmHg 85%
    18:00 -1°C° 0.1 mm 6 mps 733 mmHg 83%
    19:00 -2°C° 0.1 mm 7 mps 734 mmHg 81%
    20:00 -2°C° 0 mm 7 mps 734 mmHg 82%
    21:00 -2°C° 0 mm 6 mps 734 mmHg 82%
    22:00 -2°C° 0 mm 6 mps 734 mmHg 83%
    23:00 -2°C° 0 mm 6 mps 734 mmHg 85%

    Day after tomorrow, 15 December, Friday

    Time Temperature Precipitation Wind Pressure Humidity
    00:00 -3°C° 0 mm 6 mps 734 mmHg 87%
    01:00 -3°C° 0 mm 6 mps 733 mmHg 89%
    02:00 -2°C° 0 mm 5 mps 733 mmHg 90%
    03:00 -2°C° 0 mm 5 mps 733 mmHg 90%
    04:00 -2°C° 0 mm 4 mps 733 mmHg 91%
    05:00 -2°C° 0 mm 4 mps 733 mmHg 92%
    06:00 -1°C° 0 mm 3 mps 732 mmHg 92%
    07:00 -2°C° 0 mm 3 mps 732 mmHg 93%
    08:00 -1°C° 0.1 mm 2 mps 732 mmHg 92%
    09:00 -1°C° 0.1 mm 2 mps 732 mmHg 91%
    10:00 +1°C° 0.1 mm 2 mps 733 mmHg 90%
    11:00 0°C° 0.1 mm 3 mps 733 mmHg 89%
    12:00 0°C° 0.1 mm 3 mps 733 mmHg 88%
    13:00 -1°C° 0.1 mm 4 mps 734 mmHg 88%
    14:00 -1°C° 0 mm 4 mps 734 mmHg 89%
    15:00 -1°C° 0 mm 4 mps 735 mmHg 90%
    16:00 -1°C° 0 mm 4 mps 735 mmHg 91%
    17:00 -1°C° 0 mm 5 mps 736 mmHg 90%
    18:00 -1°C° 0 mm 5 mps 736 mmHg 89%
    19:00 -1°C° 0 mm 5 mps 737 mmHg 89%
    20:00 -1°C° 0 mm 5 mps 737 mmHg 89%
    21:00 -1°C° 0 mm 5 mps 737 mmHg 89%
    22:00 -1°C° 0 mm 5 mps 738 mmHg 89%
    23:00 -1°C° 0 mm 5 mps 738 mmHg 89%

    16 December, Saturday

    Time Temperature Precipitation Wind Pressure Humidity
    00:00 -2°C° 0 mm 5 mps 738 mmHg 90%
    01:00 -2°C° 0 mm 5 mps 738 mmHg 90%
    02:00 -2°C° 0 mm 5 mps 738 mmHg 91%
    03:00 -4°C° 0 mm 5 mps 738 mmHg 92%
    04:00 -3°C° 0 mm 4 mps 738 mmHg 93%
    05:00 -3°C° 0 mm 4 mps 738 mmHg 93%
    06:00 -3°C° 0 mm 4 mps 739 mmHg 93%
    07:00 -3°C° 0 mm 4 mps 739 mmHg 93%
    08:00 -2°C° 0 mm 4 mps 739 mmHg 93%
    09:00 -2°C° 0 mm 4 mps 740 mmHg 92%
    10:00 -2°C° 0 mm 4 mps 740 mmHg 91%
    11:00 -2°C° 0 mm 4 mps 740 mmHg 90%
    12:00 -1°C° 0 mm 4 mps 741 mmHg 89%
    13:00 -1°C° 0 mm 5 mps 741 mmHg 89%
    14:00 -1°C° 0.1 mm 5 mps 741 mmHg 88%
    15:00 -1°C° 0.1 mm 5 mps 742 mmHg 87%
    16:00 -1°C° 0.1 mm 5 mps 742 mmHg 87%
    17:00 -1°C° 0.1 mm 5 mps 743 mmHg 86%
    18:00 -2°C° 0.1 mm 5 mps 743 mmHg 86%
    19:00 -2°C° 0.1 mm 5 mps 744 mmHg 85%
    20:00 -2°C° 0 mm 5 mps 744 mmHg 86%
    21:00 -2°C° 0 mm 5 mps 745 mmHg 86%
    22:00 -4°C° 0 mm 5 mps 745 mmHg 87%
    23:00 -3°C° 0.1 mm 4 mps 746 mmHg 88%

    17 December, Sunday

    Time Temperature Precipitation Wind Pressure Humidity
    00:00 -3°C° 0.1 mm 4 mps 746 mmHg 88%
    01:00 -3°C° 0.1 mm 4 mps 747 mmHg 89%
    02:00 -2°C° 0.1 mm 4 mps 747 mmHg 89%
    03:00 -2°C° 0.1 mm 4 mps 748 mmHg 88%
    04:00 -2°C° 0.1 mm 4 mps 748 mmHg 88%
    05:00 -2°C° 0.1 mm 4 mps 749 mmHg 87%
    06:00 -2°C° 0.1 mm 4 mps 750 mmHg 87%
    07:00 -2°C° 0.1 mm 4 mps 751 mmHg 86%
    08:00 -2°C° 0 mm 4 mps 751 mmHg 85%
    09:00 -2°C° 0 mm 4 mps 752 mmHg 84%
    10:00 -1°C° 0 mm 4 mps 753 mmHg 83%
    11:00 -1°C° 0 mm 4 mps 754 mmHg 82%
    12:00 -1°C° 0 mm 4 mps 754 mmHg 81%
    13:00 -1°C° 0 mm 4 mps 755 mmHg 80%
    14:00 -1°C° 0 mm 4 mps 755 mmHg 82%
    15:00 -1°C° 0 mm 3 mps 756 mmHg 83%
    16:00 -1°C° 0 mm 3 mps 756 mmHg 85%
    17:00 -2°C° 0 mm 3 mps 757 mmHg 85%
    18:00 -2°C° 0 mm 2 mps 757 mmHg 86%
    19:00 -2°C° 0 mm 2 mps 758 mmHg 86%
    20:00 -2°C° 0 mm 2 mps 758 mmHg 86%
    21:00 -3°C° 0 mm 2 mps 759 mmHg 87%
    22:00 -3°C° 0 mm 2 mps 759 mmHg 87%
    23:00 -3°C° 0 mm 2 mps 759 mmHg 88%

    18 December, Monday

    Time Temperature Precipitation Wind Pressure Humidity
    00:00 -3°C° 0 mm 2 mps 759 mmHg 90%
    01:00 -3°C° 0 mm 2 mps 759 mmHg 91%
    02:00 -3°C° 0 mm 2 mps 759 mmHg 92%
    03:00 -3°C° 0 mm 2 mps 759 mmHg 92%
    04:00 -4°C° 0 mm 3 mps 759 mmHg 93%
    05:00 -4°C° 0 mm 3 mps 759 mmHg 93%
    06:00 -4°C° 0 mm 3 mps 759 mmHg 93%
    07:00 -4°C° 0 mm 3 mps 759 mmHg 93%
    08:00 -4°C° 0 mm 3 mps 759 mmHg 92%
    09:00 -2°C° 0 mm 3 mps 759 mmHg 92%
    10:00 -3°C° 0 mm 4 mps 759 mmHg 91%
    11:00 -3°C° 0 mm 4 mps 759 mmHg 91%
    12:00 -2°C° 0 mm 4 mps 759 mmHg 90%
    13:00 -2°C° 0 mm 4 mps 758 mmHg 90%
    14:00 -2°C° 0 mm 4 mps 758 mmHg 90%
    15:00 -2°C° 0 mm 4 mps 758 mmHg 91%
    16:00 -2°C° 0 mm 4 mps 758 mmHg 92%
    17:00 -2°C° 0 mm 4 mps 758 mmHg 92%
    18:00 -2°C° 0 mm 4 mps 758 mmHg 91%
    19:00 -2°C° 0 mm 4 mps 758 mmHg 91%
    20:00 -2°C° 0 mm 4 mps 758 mmHg 91%
    21:00 -1°C° 0 mm 3 mps 758 mmHg 91%
    22:00 -1°C° 0 mm 3 mps 759 mmHg 90%
    23:00 -2°C° 0 mm 3 mps 759 mmHg 91%
    Show more